Time,TemperatureF,DewpointF,PressureIn,WindDirection,WindDirectionDegrees,WindSpeedMPH,WindSpeedGustMPH,Humidity,HourlyPrecipIn,Conditions,Clouds,dailyrainin,SoftwareType,DateUTC
2013-12-19 00:01:00,34.8,24.2,29.82,SW,225,17.0,17.0,65,0.00,,,0.00,WUHU216HW,2013-12-19 05:01:00,
2013-12-19 00:06:00,35.4,24.8,29.81,SSW,203,13.1,17.0,65,0.00,,,0.00,WUHU216HW,2013-12-19 05:06:00,
2013-12-19 00:11:00,35.4,24.8,29.82,SSW,203,6.9,17.0,65,0.00,,,0.00,WUHU216HW,2013-12-19 05:11:00,
2013-12-19 00:16:00,35.9,25.3,29.81,SSW,203,10.5,10.5,65,0.00,,,0.00,WUHU216HW,2013-12-19 05:16:00,
2013-12-19 00:21:00,36.1,25.4,29.81,SSW,203,11.8,11.8,65,0.00,,,0.00,WUHU216HW,2013-12-19 05:21:00,
2013-12-19 00:26:00,36.3,25.6,29.81,South,180,7.6,11.8,65,0.00,,,0.00,WUHU216HW,2013-12-19 05:26:00,
2013-12-19 00:31:00,36.5,26.2,29.81,SW,225,17.4,17.4,66,0.00,,,0.00,WUHU216HW,2013-12-19 05:31:00,
2013-12-19 00:36:00,36.8,26.5,29.80,South,180,7.1,17.4,66,0.00,,,0.00,WUHU216HW,2013-12-19 05:36:00,
2013-12-19 00:41:00,37.0,26.7,29.80,WSW,248,14.9,17.4,66,0.00,,,0.00,WUHU216HW,2013-12-19 05:41:00,
2013-12-19 00:46:00,37.2,26.8,29.80,SSW,203,10.7,14.9,66,0.00,,,0.00,WUHU216HW,2013-12-19 05:46:00,
2013-12-19 00:51:00,37.2,26.8,29.81,SSW,203,10.2,14.9,66,0.00,,,0.00,WUHU216HW,2013-12-19 05:51:00,
2013-12-19 00:56:00,37.2,26.8,29.80,SSW,203,12.0,12.0,66,0.00,,,0.00,WUHU216HW,2013-12-19 05:56:00,
2013-12-19 01:01:00,37.5,27.6,29.80,SSW,203,12.0,12.0,67,0.00,,,0.00,WUHU216HW,2013-12-19 06:01:00,
2013-12-19 01:06:00,37.5,27.6,29.80,SSW,203,3.1,12.0,67,0.00,,,0.00,WUHU216HW,2013-12-19 06:06:00,
2013-12-19 01:11:00,37.7,27.7,29.80,SSW,203,10.7,18.1,67,0.00,,,0.00,WUHU216HW,2013-12-19 06:11:00,
2013-12-19 01:16:00,37.9,27.9,29.80,SSW,203,18.1,18.1,67,0.00,,,0.00,WUHU216HW,2013-12-19 06:16:00,
2013-12-19 01:21:00,37.9,28.3,29.80,SW,225,9.1,18.1,68,0.00,,,0.00,WUHU216HW,2013-12-19 06:21:00,
2013-12-19 01:26:00,38.1,28.4,29.80,SSW,203,12.7,18.1,68,0.00,,,0.00,WUHU216HW,2013-12-19 06:26:00,
2013-12-19 01:31:00,38.3,28.6,29.79,SSW,203,5.8,13.4,68,0.00,,,0.00,WUHU216HW,2013-12-19 06:31:00,
2013-12-19 01:36:00,38.4,28.7,29.79,SSW,203,10.7,12.7,68,0.00,,,0.00,WUHU216HW,2013-12-19 06:36:00,
2013-12-19 01:41:00,38.4,28.7,29.80,SSW,203,9.6,19.0,68,0.00,,,0.00,WUHU216HW,2013-12-19 06:41:00,
2013-12-19 01:46:00,38.6,29.3,29.79,WSW,248,12.9,19.0,69,0.00,,,0.00,WUHU216HW,2013-12-19 06:46:00,
2013-12-19 01:51:00,38.8,29.4,29.79,SW,225,14.5,14.5,69,0.00,,,0.00,WUHU216HW,2013-12-19 06:51:00,
2013-12-19 01:56:00,38.8,29.4,29.79,SW,225,10.2,14.5,69,0.00,,,0.00,WUHU216HW,2013-12-19 06:56:00,
2013-12-19 02:01:00,38.8,29.4,29.79,SSW,203,13.4,13.4,69,0.00,,,0.00,WUHU216HW,2013-12-19 07:01:00,
2013-12-19 02:06:00,39.0,29.6,29.79,SW,225,9.8,13.4,69,0.00,,,0.00,WUHU216HW,2013-12-19 07:06:00,
2013-12-19 02:11:00,39.0,29.6,29.80,SW,225,9.3,14.5,69,0.00,,,0.00,WUHU216HW,2013-12-19 07:11:00,
2013-12-19 02:16:00,39.0,29.6,29.80,SSW,203,12.7,14.5,69,0.00,,,0.00,WUHU216HW,2013-12-19 07:16:00,
2013-12-19 02:21:00,39.3,30.0,29.80,SSW,203,14.0,16.1,69,0.00,,,0.00,WUHU216HW,2013-12-19 07:21:00,
2013-12-19 02:26:00,39.3,30.0,29.80,SW,225,9.1,16.1,69,0.00,,,0.00,WUHU216HW,2013-12-19 07:26:00,
2013-12-19 02:31:00,39.5,30.5,29.81,SW,225,8.7,11.8,70,0.00,,,0.00,WUHU216HW,2013-12-19 07:31:00,
2013-12-19 02:36:00,39.7,30.7,29.81,SSW,203,10.7,10.7,70,0.00,,,0.00,WUHU216HW,2013-12-19 07:36:00,
2013-12-19 02:41:00,39.7,30.7,29.81,SSW,203,9.6,10.7,70,0.00,,,0.00,WUHU216HW,2013-12-19 07:41:00,
2013-12-19 02:46:00,39.7,30.7,29.81,SSW,203,9.1,9.6,70,0.00,,,0.00,WUHU216HW,2013-12-19 07:46:00,
2013-12-19 02:51:00,39.7,30.7,29.81,WSW,248,16.7,16.7,70,0.00,,,0.00,WUHU216HW,2013-12-19 07:51:00,
2013-12-19 02:56:00,39.7,30.7,29.81,SW,225,9.8,16.7,70,0.00,,,0.00,WUHU216HW,2013-12-19 07:56:00,
2013-12-19 03:01:00,39.7,30.7,29.81,WSW,248,12.7,12.7,70,0.00,,,0.00,WUHU216HW,2013-12-19 08:01:00,
2013-12-19 03:06:00,39.9,30.9,29.81,SSW,203,14.3,14.3,70,0.00,,,0.00,WUHU216HW,2013-12-19 08:06:00,
2013-12-19 03:11:00,39.9,30.9,29.82,SW,225,7.3,16.3,70,0.00,,,0.00,WUHU216HW,2013-12-19 08:11:00,
2013-12-19 03:16:00,39.9,30.9,29.82,WSW,248,9.3,16.3,70,0.00,,,0.00,WUHU216HW,2013-12-19 08:16:00,
2013-12-19 03:21:00,39.9,30.9,29.82,SSW,203,8.7,9.3,70,0.00,,,0.00,WUHU216HW,2013-12-19 08:21:00,
2013-12-19 03:26:00,39.7,31.0,29.82,WSW,248,5.1,9.8,71,0.00,,,0.00,WUHU216HW,2013-12-19 08:26:00,
2013-12-19 03:31:00,39.7,31.0,29.82,SW,225,10.5,12.7,71,0.00,,,0.00,WUHU216HW,2013-12-19 08:31:00,
2013-12-19 03:36:00,39.7,31.0,29.82,SW,225,6.9,12.7,71,0.00,,,0.00,WUHU216HW,2013-12-19 08:36:00,
2013-12-19 03:41:00,39.5,30.8,29.82,SSE,158,5.3,10.5,71,0.00,,,0.00,WUHU216HW,2013-12-19 08:41:00,
2013-12-19 03:45:00,39.5,31.2,29.82,SSW,203,13.8,13.8,72,0.00,,,0.00,WUHU216HW,2013-12-19 08:45:00,
2013-12-19 03:50:00,39.5,31.2,29.82,SSW,203,8.7,13.8,72,0.00,,,0.00,WUHU216HW,2013-12-19 08:50:00,
2013-12-19 03:55:00,39.5,31.2,29.82,WSW,248,6.9,10.5,72,0.00,,,0.00,WUHU216HW,2013-12-19 08:55:00,
2013-12-19 04:00:00,39.3,31.0,29.82,SW,225,4.2,10.5,72,0.00,,,0.00,WUHU216HW,2013-12-19 09:00:00,
2013-12-19 04:05:00,39.3,31.0,29.83,WSW,248,6.9,9.3,72,0.00,,,0.00,WUHU216HW,2013-12-19 09:05:00,
2013-12-19 04:10:00,39.3,31.0,29.83,SSW,203,8.5,12.0,72,0.00,,,0.00,WUHU216HW,2013-12-19 09:10:00,
2013-12-19 04:15:00,39.3,31.3,29.83,SSW,203,16.7,16.7,73,0.00,,,0.00,WUHU216HW,2013-12-19 09:15:00,
2013-12-19 04:20:00,39.0,31.0,29.82,SW,225,9.1,16.7,73,0.00,,,0.00,WUHU216HW,2013-12-19 09:20:00,
2013-12-19 04:25:00,39.3,31.3,29.82,SW,225,6.7,16.7,73,0.00,,,0.00,WUHU216HW,2013-12-19 09:25:00,
2013-12-19 04:30:00,39.2,31.2,29.83,WSW,248,12.9,12.9,73,0.00,,,0.00,WUHU216HW,2013-12-19 09:30:00,
2013-12-19 04:35:00,39.3,31.3,29.82,SW,225,4.2,12.9,73,0.00,,,0.00,WUHU216HW,2013-12-19 09:35:00,
2013-12-19 04:40:00,39.2,31.5,29.82,SW,225,8.9,12.9,74,0.00,,,0.00,WUHU216HW,2013-12-19 09:40:00,
2013-12-19 04:45:00,39.3,31.7,29.82,SW,225,6.2,13.6,74,0.00,,,0.00,WUHU216HW,2013-12-19 09:45:00,
2013-12-19 04:50:00,39.2,31.5,29.82,SSW,203,12.3,13.6,74,0.00,,,0.00,WUHU216HW,2013-12-19 09:50:00,
2013-12-19 04:55:00,39.3,31.7,29.83,SW,225,9.6,12.3,74,0.00,,,0.00,WUHU216HW,2013-12-19 09:55:00,
2013-12-19 05:00:00,39.3,31.7,29.83,SSW,203,9.1,9.6,74,0.00,,,0.00,WUHU216HW,2013-12-19 10:00:00,
2013-12-19 05:05:00,39.2,31.5,29.82,SW,225,8.7,9.6,74,0.00,,,0.00,WUHU216HW,2013-12-19 10:05:00,
2013-12-19 05:10:00,39.0,31.3,29.82,SW,225,10.7,17.0,74,0.00,,,0.00,WUHU216HW,2013-12-19 10:10:00,
2013-12-19 05:15:00,39.0,31.3,29.82,WSW,248,9.8,17.0,74,0.00,,,0.00,WUHU216HW,2013-12-19 10:15:00,
2013-12-19 05:20:00,39.0,31.3,29.82,SSW,203,6.9,12.0,74,0.00,,,0.00,WUHU216HW,2013-12-19 10:20:00,
2013-12-19 05:25:00,39.0,31.7,29.83,SSW,203,10.2,10.2,75,0.00,,,0.00,WUHU216HW,2013-12-19 10:25:00,
2013-12-19 05:30:00,39.0,31.7,29.83,SW,225,12.9,12.9,75,0.00,,,0.00,WUHU216HW,2013-12-19 10:30:00,
2013-12-19 05:35:00,39.0,31.7,29.83,SW,225,6.7,12.9,75,0.00,,,0.00,WUHU216HW,2013-12-19 10:35:00,
2013-12-19 05:40:00,39.0,31.7,29.83,SW,225,14.3,14.3,75,0.00,,,0.00,WUHU216HW,2013-12-19 10:40:00,
2013-12-19 05:45:00,38.8,31.8,29.83,WSW,248,11.6,14.3,76,0.00,,,0.00,WUHU216HW,2013-12-19 10:45:00,
2013-12-19 05:50:00,38.8,31.8,29.83,SSW,203,10.2,14.3,76,0.00,,,0.00,WUHU216HW,2013-12-19 10:50:00,
2013-12-19 05:55:00,38.8,31.8,29.84,SSW,203,13.4,13.4,76,0.00,,,0.00,WUHU216HW,2013-12-19 10:55:00,
2013-12-19 06:00:00,38.8,31.8,29.83,SSW,203,5.3,13.4,76,0.00,,,0.00,WUHU216HW,2013-12-19 11:00:00,
2013-12-19 06:05:00,38.6,31.7,29.83,WSW,248,12.9,13.4,76,0.00,,,0.00,WUHU216HW,2013-12-19 11:05:00,
2013-12-19 06:10:00,38.4,31.5,29.83,SW,225,6.9,13.4,76,0.00,,,0.00,WUHU216HW,2013-12-19 11:10:00,
2013-12-19 06:15:00,38.4,31.8,29.83,SSW,203,17.4,17.4,77,0.00,,,0.00,WUHU216HW,2013-12-19 11:15:00,
2013-12-19 06:16:00,38.4,31.8,29.83,SSW,203,17.4,17.4,77,0.00,,,0.00,WUHU216HW,2013-12-19 11:16:00,
2013-12-19 06:21:00,38.4,31.8,29.83,SSW,203,10.0,17.4,77,0.00,,,0.00,WUHU216HW,2013-12-19 11:21:00,
2013-12-19 06:26:00,38.4,31.8,29.83,SSW,203,7.3,12.3,77,0.00,,,0.00,WUHU216HW,2013-12-19 11:26:00,
2013-12-19 06:31:00,38.3,31.7,29.83,WSW,248,4.6,8.5,77,0.00,,,0.00,WUHU216HW,2013-12-19 11:31:00,
2013-12-19 06:36:00,38.3,31.7,29.83,SW,225,10.7,10.7,77,0.00,,,0.00,WUHU216HW,2013-12-19 11:36:00,
2013-12-19 06:41:00,38.3,31.7,29.83,SSW,203,8.7,10.7,77,0.00,,,0.00,WUHU216HW,2013-12-19 11:41:00,
2013-12-19 06:46:00,38.1,31.8,29.83,SW,225,14.3,14.3,78,0.00,,,0.00,WUHU216HW,2013-12-19 11:46:00,
2013-12-19 06:51:00,38.1,31.8,29.84,SW,225,10.5,14.3,78,0.00,,,0.00,WUHU216HW,2013-12-19 11:51:00,
2013-12-19 06:56:00,38.1,31.8,29.84,SW,225,6.2,16.3,78,0.00,,,0.00,WUHU216HW,2013-12-19 11:56:00,
2013-12-19 07:01:00,38.1,31.8,29.83,SSW,203,8.5,16.3,78,0.00,,,0.00,WUHU216HW,2013-12-19 12:01:00,
2013-12-19 07:06:00,38.1,31.8,29.84,SW,225,2.4,8.5,78,0.00,,,0.00,WUHU216HW,2013-12-19 12:06:00,
2013-12-19 07:11:00,37.9,32.0,29.84,SW,225,4.0,9.3,79,0.00,,,0.00,WUHU216HW,2013-12-19 12:11:00,
2013-12-19 07:16:00,37.9,32.0,29.84,SSW,203,6.9,13.8,79,0.00,,,0.00,WUHU216HW,2013-12-19 12:16:00,
2013-12-19 07:21:00,37.9,32.0,29.84,SSW,203,7.8,13.8,79,0.00,,,0.00,WUHU216HW,2013-12-19 12:21:00,
2013-12-19 07:26:00,37.9,32.0,29.84,SW,225,5.3,7.8,79,0.00,,,0.00,WUHU216HW,2013-12-19 12:26:00,
2013-12-19 07:31:00,37.9,32.0,29.84,SSW,203,11.1,11.1,79,0.00,,,0.00,WUHU216HW,2013-12-19 12:31:00,
2013-12-19 07:36:00,37.9,32.0,29.84,South,180,8.7,11.1,79,0.00,,,0.00,WUHU216HW,2013-12-19 12:36:00,
2013-12-19 07:41:00,37.9,32.0,29.84,WSW,248,10.0,12.9,79,0.00,,,0.00,WUHU216HW,2013-12-19 12:41:00,
2013-12-19 07:46:00,37.7,31.8,29.84,SW,225,5.5,12.9,79,0.00,,,0.00,WUHU216HW,2013-12-19 12:46:00,
2013-12-19 07:51:00,37.7,32.1,29.84,SSW,203,6.9,10.0,80,0.00,,,0.00,WUHU216HW,2013-12-19 12:51:00,
2013-12-19 07:56:00,37.5,32.0,29.85,SSW,203,15.2,15.2,80,0.00,,,0.00,WUHU216HW,2013-12-19 12:56:00,
2013-12-19 08:01:00,37.5,32.0,29.84,SSE,158,8.2,15.2,80,0.00,,,0.00,WUHU216HW,2013-12-19 13:01:00,
2013-12-19 08:06:00,37.5,32.0,29.85,SSW,203,7.8,15.2,80,0.00,,,0.00,WUHU216HW,2013-12-19 13:06:00,
2013-12-19 08:11:00,37.5,32.0,29.85,SSW,203,7.6,12.9,80,0.00,,,0.00,WUHU216HW,2013-12-19 13:11:00,
2013-12-19 08:16:00,37.5,32.0,29.85,SW,225,10.2,10.2,80,0.00,,,0.00,WUHU216HW,2013-12-19 13:16:00,
2013-12-19 08:21:00,37.5,32.0,29.85,SSW,203,4.0,10.5,80,0.00,,,0.00,WUHU216HW,2013-12-19 13:21:00,
2013-12-19 08:26:00,37.5,32.0,29.85,SSW,203,6.7,10.5,80,0.00,,,0.00,WUHU216HW,2013-12-19 13:26:00,
2013-12-19 08:31:00,37.5,32.0,29.85,SSW,203,6.2,6.7,80,0.00,,,0.00,WUHU216HW,2013-12-19 13:31:00,
2013-12-19 08:36:00,37.5,32.2,29.85,SSW,203,7.3,7.3,81,0.00,,,0.00,WUHU216HW,2013-12-19 13:36:00,
2013-12-19 08:40:00,37.9,32.6,29.85,SW,225,6.0,7.3,81,0.00,,,0.00,WUHU216HW,2013-12-19 13:40:00,
2013-12-19 08:45:00,37.9,32.6,29.86,SSW,203,8.9,8.9,81,0.00,,,0.00,WUHU216HW,2013-12-19 13:45:00,
2013-12-19 08:51:00,38.1,32.8,29.87,WSW,248,5.5,8.9,81,0.00,,,0.00,WUHU216HW,2013-12-19 13:51:00,
2013-12-19 08:56:00,38.3,33.0,29.87,SSW,203,7.8,8.0,81,0.00,,,0.00,WUHU216HW,2013-12-19 13:56:00,
2013-12-19 09:01:00,38.3,32.7,29.87,WNW,293,4.4,9.1,80,0.00,,,0.00,WUHU216HW,2013-12-19 14:01:00,
2013-12-19 09:06:00,38.4,32.9,29.87,SSW,203,6.2,9.1,80,0.00,,,0.00,WUHU216HW,2013-12-19 14:06:00,
2013-12-19 09:11:00,38.4,32.9,29.87,South,180,8.5,8.9,80,0.00,,,0.00,WUHU216HW,2013-12-19 14:11:00,
2013-12-19 09:16:00,38.4,32.9,29.87,SSW,203,8.9,8.9,80,0.00,,,0.00,WUHU216HW,2013-12-19 14:16:00,
2013-12-19 09:21:00,38.8,33.2,29.88,SW,225,6.2,9.1,80,0.00,,,0.00,WUHU216HW,2013-12-19 14:21:00,
2013-12-19 09:26:00,38.8,33.2,29.88,SSW,203,12.3,12.3,80,0.00,,,0.00,WUHU216HW,2013-12-19 14:26:00,
2013-12-19 09:31:00,38.8,33.2,29.88,SW,225,10.5,12.3,80,0.00,,,0.00,WUHU216HW,2013-12-19 14:31:00,
2013-12-19 09:35:00,38.8,33.2,29.88,SSW,203,6.2,12.3,80,0.00,,,0.00,WUHU216HW,2013-12-19 14:35:00,
2013-12-19 09:40:00,38.8,33.2,29.88,SSE,158,12.0,12.0,80,0.00,,,0.00,WUHU216HW,2013-12-19 14:40:00,
2013-12-19 09:45:00,38.8,33.2,29.88,SW,225,9.8,12.0,80,0.00,,,0.00,WUHU216HW,2013-12-19 14:45:00,
2013-12-19 09:50:00,39.0,33.4,29.88,SW,225,7.6,12.0,80,0.00,,,0.00,WUHU216HW,2013-12-19 14:50:00,
2013-12-19 09:55:00,39.0,33.4,29.88,South,180,6.4,9.1,80,0.00,,,0.00,WUHU216HW,2013-12-19 14:55:00,
2013-12-19 10:00:00,39.2,33.6,29.89,SSW,203,6.0,9.1,80,0.00,,,0.00,WUHU216HW,2013-12-19 15:00:00,
2013-12-19 10:05:00,39.3,33.7,29.89,SW,225,9.8,9.8,80,0.00,,,0.00,WUHU216HW,2013-12-19 15:05:00,
2013-12-19 10:10:00,39.5,33.6,29.89,SSW,203,6.9,9.8,79,0.00,,,0.00,WUHU216HW,2013-12-19 15:10:00,
2013-12-19 10:15:00,39.7,33.7,29.89,SSW,203,4.0,6.9,79,0.00,,,0.00,WUHU216HW,2013-12-19 15:15:00,
2013-12-19 10:20:00,39.7,34.1,29.89,SSW,203,12.3,12.3,80,0.00,,,0.00,WUHU216HW,2013-12-19 15:20:00,
2013-12-19 10:25:00,39.9,33.9,29.89,WSW,248,7.6,12.3,79,0.00,,,0.00,WUHU216HW,2013-12-19 15:25:00,
2013-12-19 10:30:00,39.9,33.9,29.90,WSW,248,3.8,10.5,79,0.00,,,0.00,WUHU216HW,2013-12-19 15:30:00,
2013-12-19 10:35:00,40.1,34.0,29.90,SSW,203,8.5,8.5,79,0.00,,,0.00,WUHU216HW,2013-12-19 15:35:00,
2013-12-19 10:40:00,40.6,34.5,29.90,SSW,203,3.1,8.5,79,0.00,,,0.00,WUHU216HW,2013-12-19 15:40:00,
2013-12-19 10:45:00,40.8,34.4,29.90,SW,225,8.2,8.2,78,0.00,,,0.00,WUHU216HW,2013-12-19 15:45:00,
2013-12-19 10:50:00,41.0,34.5,29.91,SSW,203,6.7,8.2,78,0.00,,,0.00,WUHU216HW,2013-12-19 15:50:00,
2013-12-19 10:55:00,41.5,35.1,29.91,SSW,203,5.5,8.2,78,0.00,,,0.00,WUHU216HW,2013-12-19 15:55:00,
2013-12-19 11:00:00,41.7,34.9,29.91,SSW,203,3.3,6.7,77,0.00,,,0.00,WUHU216HW,2013-12-19 16:00:00,
2013-12-19 11:05:00,41.9,34.8,29.91,West,270,2.9,5.5,76,0.00,,,0.00,WUHU216HW,2013-12-19 16:05:00,
2013-12-19 11:10:00,42.0,35.0,29.92,SSW,203,6.2,6.2,76,0.00,,,0.00,WUHU216HW,2013-12-19 16:10:00,
2013-12-19 11:15:00,41.9,34.8,29.92,SSW,203,5.8,6.2,76,0.00,,,0.00,WUHU216HW,2013-12-19 16:15:00,
2013-12-19 11:20:00,41.9,34.8,29.92,SW,225,8.5,8.5,76,0.00,,,0.00,WUHU216HW,2013-12-19 16:20:00,
2013-12-19 11:25:00,42.0,35.0,29.92,SSW,203,8.5,8.5,76,0.00,,,0.00,WUHU216HW,2013-12-19 16:25:00,
2013-12-19 11:30:00,42.4,35.3,29.92,SW,225,4.2,8.5,76,0.00,,,0.00,WUHU216HW,2013-12-19 16:30:00,
2013-12-19 11:35:00,42.4,35.3,29.91,SSW,203,4.6,8.5,76,0.00,,,0.00,WUHU216HW,2013-12-19 16:35:00,
2013-12-19 11:40:00,42.4,35.3,29.92,SSW,203,4.4,4.6,76,0.00,,,0.00,WUHU216HW,2013-12-19 16:40:00,
2013-12-19 11:45:00,42.6,35.2,29.92,SSW,203,7.6,7.6,75,0.00,,,0.00,WUHU216HW,2013-12-19 16:45:00,
2013-12-19 11:50:00,42.6,35.2,29.91,SW,225,5.5,10.5,75,0.00,,,0.00,WUHU216HW,2013-12-19 16:50:00,
2013-12-19 11:55:00,42.9,35.5,29.92,SSW,203,12.7,12.7,75,0.00,,,0.00,WUHU216HW,2013-12-19 16:55:00,
2013-12-19 12:00:00,42.9,35.5,29.92,WSW,248,5.5,12.7,75,0.00,,,0.00,WUHU216HW,2013-12-19 17:00:00,
2013-12-19 12:05:00,42.9,35.2,29.92,SW,225,3.5,12.7,74,0.00,,,0.00,WUHU216HW,2013-12-19 17:05:00,
2013-12-19 12:10:00,42.9,35.5,29.91,NW,315,1.5,9.6,75,0.00,,,0.00,WUHU216HW,2013-12-19 17:10:00,
2013-12-19 12:15:00,43.1,35.4,29.91,WSW,248,6.9,6.9,74,0.00,,,0.00,WUHU216HW,2013-12-19 17:15:00,
2013-12-19 12:20:00,43.3,35.6,29.91,SSW,203,4.0,7.8,74,0.00,,,0.00,WUHU216HW,2013-12-19 17:20:00,
2013-12-19 12:25:00,43.5,35.7,29.90,SSW,203,5.3,7.8,74,0.00,,,0.00,WUHU216HW,2013-12-19 17:25:00,
2013-12-19 12:30:00,43.5,35.7,29.90,SSW,203,6.4,8.9,74,0.00,,,0.00,WUHU216HW,2013-12-19 17:30:00,
2013-12-19 12:35:00,43.3,35.6,29.90,West,270,0.8,8.9,74,0.00,,,0.00,WUHU216HW,2013-12-19 17:35:00,
2013-12-19 12:40:00,43.1,35.4,29.91,SSW,203,6.0,6.0,74,0.00,,,0.00,WUHU216HW,2013-12-19 17:40:00,
2013-12-19 12:45:00,43.1,35.4,29.90,West,270,5.3,7.1,74,0.00,,,0.00,WUHU216HW,2013-12-19 17:45:00,
2013-12-19 12:50:00,42.9,35.2,29.90,WNW,293,0.0,7.1,74,0.00,,,0.00,WUHU216HW,2013-12-19 17:50:00,
2013-12-19 12:55:00,43.1,35.4,29.90,WSW,248,1.5,4.9,74,0.00,,,0.00,WUHU216HW,2013-12-19 17:55:00,
2013-12-19 13:00:00,43.3,35.6,29.90,SW,225,3.5,3.5,74,0.00,,,0.00,WUHU216HW,2013-12-19 18:00:00,
2013-12-19 13:05:00,43.3,35.6,29.90,SW,225,0.0,3.5,74,0.00,,,0.00,WUHU216HW,2013-12-19 18:05:00,
2013-12-19 13:10:00,43.3,35.6,29.90,WSW,248,0.0,3.5,74,0.00,,,0.00,WUHU216HW,2013-12-19 18:10:00,
2013-12-19 13:15:00,43.5,35.7,29.90,West,270,0.8,1.5,74,0.00,,,0.00,WUHU216HW,2013-12-19 18:15:00,
2013-12-19 13:20:00,43.5,35.7,29.90,West,270,0.0,2.9,74,0.00,,,0.00,WUHU216HW,2013-12-19 18:20:00,
2013-12-19 13:25:00,43.5,35.7,29.90,NNW,338,0.0,2.9,74,0.00,,,0.00,WUHU216HW,2013-12-19 18:25:00,
2013-12-19 13:30:00,43.7,35.9,29.90,NW,315,0.8,2.0,74,0.00,,,0.00,WUHU216HW,2013-12-19 18:30:00,
2013-12-19 13:35:00,43.7,35.9,29.89,NW,315,0.0,2.0,74,0.00,,,0.00,WUHU216HW,2013-12-19 18:35:00,
2013-12-19 13:40:00,43.7,35.9,29.90,NNW,338,1.7,1.7,74,0.00,,,0.00,WUHU216HW,2013-12-19 18:40:00,
2013-12-19 13:45:00,43.8,36.1,29.90,NNW,338,0.0,1.7,74,0.00,,,0.00,WUHU216HW,2013-12-19 18:45:00,
2013-12-19 13:50:00,44.2,36.4,29.89,North,0,2.4,2.4,74,0.00,,,0.00,WUHU216HW,2013-12-19 18:50:00,
2013-12-19 13:55:00,44.2,36.4,29.89,North,0,0.6,2.4,74,0.00,,,0.00,WUHU216HW,2013-12-19 18:55:00,
2013-12-19 14:00:00,44.2,36.4,29.90,North,0,0.0,0.8,74,0.00,,,0.00,WUHU216HW,2013-12-19 19:00:00,
2013-12-19 14:05:00,44.0,35.9,29.89,NNW,338,0.8,0.8,73,0.00,,,0.00,WUHU216HW,2013-12-19 19:05:00,
2013-12-19 14:10:00,44.0,35.9,29.89,North,0,0.0,0.8,73,0.00,,,0.00,WUHU216HW,2013-12-19 19:10:00,
2013-12-19 14:15:00,43.8,36.1,29.90,North,0,0.8,1.1,74,0.00,,,0.00,WUHU216HW,2013-12-19 19:15:00,
2013-12-19 14:20:00,44.2,36.4,29.89,North,0,0.0,1.1,74,0.00,,,0.00,WUHU216HW,2013-12-19 19:20:00,
2013-12-19 14:24:00,44.2,36.4,29.89,North,0,0.0,0.8,74,0.00,,,0.00,WUHU216HW,2013-12-19 19:24:00,
2013-12-19 14:29:00,44.2,36.4,29.89,North,0,0.8,0.8,74,0.00,,,0.00,WUHU216HW,2013-12-19 19:29:00,
2013-12-19 14:34:00,44.2,36.4,29.89,North,0,0.0,0.8,74,0.00,,,0.00,WUHU216HW,2013-12-19 19:34:00,
2013-12-19 14:39:00,44.4,36.6,29.89,North,0,0.0,1.5,74,0.00,,,0.00,WUHU216HW,2013-12-19 19:39:00,
2013-12-19 14:44:00,44.2,36.1,29.89,SW,225,1.3,1.5,73,0.00,,,0.00,WUHU216HW,2013-12-19 19:44:00,
2013-12-19 14:49:00,43.8,35.7,29.89,SW,225,0.0,1.3,73,0.00,,,0.00,WUHU216HW,2013-12-19 19:49:00,
2013-12-19 14:54:00,43.8,35.7,29.89,SW,225,0.0,1.3,73,0.00,,,0.00,WUHU216HW,2013-12-19 19:54:00,
2013-12-19 14:59:00,43.5,35.4,29.88,SE,135,0.0,2.2,73,0.00,,,0.00,WUHU216HW,2013-12-19 19:59:00,
2013-12-19 15:04:00,43.3,35.2,29.88,SE,135,0.8,2.2,73,0.00,,,0.00,WUHU216HW,2013-12-19 20:04:00,
2013-12-19 15:09:00,43.1,35.0,29.89,SE,135,0.0,1.1,73,0.00,,,0.00,WUHU216HW,2013-12-19 20:09:00,
2013-12-19 15:14:00,42.6,34.9,29.89,SE,135,0.0,0.6,74,0.00,,,0.00,WUHU216HW,2013-12-19 20:14:00,
2013-12-19 15:19:00,42.6,34.9,29.90,SSW,203,2.0,2.0,74,0.00,,,0.00,WUHU216HW,2013-12-19 20:19:00,
2013-12-19 15:24:00,42.4,34.7,29.90,SSW,203,2.2,2.2,74,0.00,,,0.00,WUHU216HW,2013-12-19 20:24:00,
2013-12-19 15:29:00,42.4,35.0,29.90,SSW,203,0.6,2.2,75,0.00,,,0.00,WUHU216HW,2013-12-19 20:29:00,
2013-12-19 15:34:00,42.0,34.7,29.89,SSW,203,2.9,2.9,75,0.00,,,0.00,WUHU216HW,2013-12-19 20:34:00,
2013-12-19 15:39:00,42.0,34.7,29.89,SSW,203,0.0,2.9,75,0.00,,,0.00,WUHU216HW,2013-12-19 20:39:00,
2013-12-19 15:44:00,41.9,34.5,29.89,SE,135,2.0,2.2,75,0.00,,,0.00,WUHU216HW,2013-12-19 20:44:00,
2013-12-19 15:49:00,41.9,34.5,29.89,SE,135,1.5,2.0,75,0.00,,,0.00,WUHU216HW,2013-12-19 20:49:00,
2013-12-19 15:54:00,41.7,34.3,29.89,SSW,203,0.8,4.6,75,0.00,,,0.00,WUHU216HW,2013-12-19 20:54:00,
2013-12-19 15:59:00,41.5,34.4,29.88,SSE,158,0.0,4.6,76,0.00,,,0.00,WUHU216HW,2013-12-19 20:59:00,
2013-12-19 16:04:00,41.5,34.4,29.88,SE,135,0.0,0.8,76,0.00,,,0.00,WUHU216HW,2013-12-19 21:04:00,
2013-12-19 16:09:00,41.5,34.4,29.88,SE,135,2.0,2.0,76,0.00,,,0.00,WUHU216HW,2013-12-19 21:09:00,
2013-12-19 16:14:00,41.0,34.2,29.89,South,180,1.7,2.2,77,0.00,,,0.00,WUHU216HW,2013-12-19 21:14:00,
2013-12-19 16:19:00,41.0,34.2,29.88,South,180,3.1,3.1,77,0.00,,,0.00,WUHU216HW,2013-12-19 21:19:00,
2013-12-19 16:24:00,40.8,34.0,29.89,SSE,158,0.0,3.1,77,0.00,,,0.00,WUHU216HW,2013-12-19 21:24:00,
2013-12-19 16:29:00,40.8,34.0,29.88,South,180,0.0,0.8,77,0.00,,,0.00,WUHU216HW,2013-12-19 21:29:00,
2013-12-19 16:34:00,40.8,34.0,29.88,ENE,68,0.0,0.8,77,0.00,,,0.00,WUHU216HW,2013-12-19 21:34:00,
2013-12-19 16:39:00,40.8,34.0,29.88,SE,135,1.1,1.3,77,0.00,,,0.00,WUHU216HW,2013-12-19 21:39:00,
2013-12-19 16:44:00,40.8,34.0,29.88,SE,135,0.0,1.3,77,0.00,,,0.00,WUHU216HW,2013-12-19 21:44:00,
2013-12-19 16:49:00,40.6,33.9,29.88,SE,135,3.8,4.9,77,0.00,,,0.00,WUHU216HW,2013-12-19 21:49:00,
2013-12-19 16:54:00,40.2,33.9,29.88,SE,135,3.8,4.9,78,0.00,,,0.00,WUHU216HW,2013-12-19 21:54:00,
2013-12-19 16:59:00,40.4,34.0,29.88,SSE,158,4.9,4.9,78,0.00,,,0.00,WUHU216HW,2013-12-19 21:59:00,
2013-12-19 17:04:00,40.1,33.7,29.88,SSE,158,4.9,4.9,78,0.00,,,0.00,WUHU216HW,2013-12-19 22:04:00,
2013-12-19 17:09:00,40.1,33.7,29.88,South,180,4.2,4.9,78,0.00,,,0.00,WUHU216HW,2013-12-19 22:09:00,
2013-12-19 17:14:00,39.9,33.9,29.88,SSE,158,3.1,4.2,79,0.00,,,0.00,WUHU216HW,2013-12-19 22:14:00,
2013-12-19 17:19:00,39.9,33.9,29.88,SSE,158,3.1,4.2,79,0.00,,,0.00,WUHU216HW,2013-12-19 22:19:00,
2013-12-19 17:24:00,39.9,33.9,29.89,SSE,158,3.1,3.1,79,0.00,,,0.00,WUHU216HW,2013-12-19 22:24:00,
2013-12-19 17:29:00,39.9,33.9,29.88,SSE,158,3.1,3.1,79,0.00,,,0.00,WUHU216HW,2013-12-19 22:29:00,
2013-12-19 17:34:00,39.7,34.1,29.88,SE,135,2.4,3.1,80,0.00,,,0.00,WUHU216HW,2013-12-19 22:34:00,
2013-12-19 17:39:00,39.7,34.1,29.87,SE,135,0.8,3.1,80,0.00,,,0.00,WUHU216HW,2013-12-19 22:39:00,
2013-12-19 17:44:00,39.7,33.7,29.88,SE,135,0.8,1.7,79,0.00,,,0.00,WUHU216HW,2013-12-19 22:44:00,
2013-12-19 17:49:00,39.7,33.7,29.88,SE,135,0.8,0.8,79,0.00,,,0.00,WUHU216HW,2013-12-19 22:49:00,
2013-12-19 17:54:00,39.7,33.7,29.88,SE,135,0.8,0.8,79,0.00,,,0.00,WUHU216HW,2013-12-19 22:54:00,
2013-12-19 17:59:00,39.5,33.6,29.88,SSE,158,0.6,0.8,79,0.00,,,0.00,WUHU216HW,2013-12-19 22:59:00,
2013-12-19 18:04:00,39.5,33.9,29.88,SE,135,2.0,2.0,80,0.00,,,0.00,WUHU216HW,2013-12-19 23:04:00,
2013-12-19 18:09:00,39.5,33.9,29.89,SE,135,1.7,2.0,80,0.00,,,0.00,WUHU216HW,2013-12-19 23:09:00,
2013-12-19 18:14:00,39.3,33.7,29.88,SE,135,0.0,2.0,80,0.00,,,0.00,WUHU216HW,2013-12-19 23:14:00,
2013-12-19 18:19:00,39.3,33.7,29.88,SE,135,0.0,1.7,80,0.00,,,0.00,WUHU216HW,2013-12-19 23:19:00,
2013-12-19 18:24:00,39.3,33.7,29.88,SE,135,0.0,1.5,80,0.00,,,0.00,WUHU216HW,2013-12-19 23:24:00,
2013-12-19 18:29:00,39.2,33.6,29.87,SE,135,2.2,2.2,80,0.00,,,0.00,WUHU216HW,2013-12-19 23:29:00,
2013-12-19 18:34:00,39.0,33.4,29.88,SE,135,2.2,3.1,80,0.00,,,0.00,WUHU216HW,2013-12-19 23:34:00,
2013-12-19 18:39:00,39.0,33.4,29.88,SE,135,0.0,3.1,80,0.00,,,0.00,WUHU216HW,2013-12-19 23:39:00,
2013-12-19 18:44:00,38.8,33.2,29.88,SE,135,0.0,2.2,80,0.00,,,0.00,WUHU216HW,2013-12-19 23:44:00,
2013-12-19 18:49:00,38.8,33.5,29.88,SE,135,0.0,0.0,81,0.00,,,0.00,WUHU216HW,2013-12-19 23:49:00,
2013-12-19 18:54:00,38.8,33.5,29.88,SE,135,0.0,0.0,81,0.00,,,0.00,WUHU216HW,2013-12-19 23:54:00,
2013-12-19 18:59:00,38.8,33.5,29.88,SE,135,0.0,0.0,81,0.00,,,0.00,WUHU216HW,2013-12-19 23:59:00,
2013-12-19 19:04:00,38.6,33.3,29.88,SE,135,0.0,0.0,81,0.00,,,0.00,WUHU216HW,2013-12-20 00:04:00,
2013-12-19 19:09:00,38.8,33.5,29.88,SE,135,0.0,0.0,81,0.00,,,0.00,WUHU216HW,2013-12-20 00:09:00,
2013-12-19 19:14:00,38.8,33.5,29.88,SE,135,0.0,0.0,81,0.00,,,0.00,WUHU216HW,2013-12-20 00:14:00,
2013-12-19 19:19:00,38.4,33.1,29.87,SE,135,0.0,0.0,81,0.00,,,0.00,WUHU216HW,2013-12-20 00:19:00,
2013-12-19 19:24:00,38.4,33.1,29.87,SE,135,0.0,0.0,81,0.00,,,0.00,WUHU216HW,2013-12-20 00:24:00,
2013-12-19 19:29:00,38.4,33.1,29.87,SE,135,0.0,0.0,81,0.00,,,0.00,WUHU216HW,2013-12-20 00:29:00,
2013-12-19 19:34:00,38.4,33.1,29.87,SE,135,0.0,0.0,81,0.00,,,0.00,WUHU216HW,2013-12-20 00:34:00,
2013-12-19 19:39:00,38.4,33.1,29.87,SE,135,0.0,0.0,81,0.00,,,0.00,WUHU216HW,2013-12-20 00:39:00,
2013-12-19 19:44:00,38.4,33.1,29.88,SE,135,1.5,1.5,81,0.00,,,0.00,WUHU216HW,2013-12-20 00:44:00,
2013-12-19 19:49:00,38.4,33.1,29.87,SE,135,2.4,2.4,81,0.00,,,0.00,WUHU216HW,2013-12-20 00:49:00,
2013-12-19 19:54:00,38.3,33.0,29.87,SE,135,0.0,2.4,81,0.00,,,0.00,WUHU216HW,2013-12-20 00:54:00,
2013-12-19 19:59:00,38.1,33.1,29.87,SE,135,0.0,2.4,82,0.00,,,0.00,WUHU216HW,2013-12-20 00:59:00,
2013-12-19 20:04:00,38.1,33.1,29.87,SE,135,0.0,2.0,82,0.00,,,0.00,WUHU216HW,2013-12-20 01:04:00,
2013-12-19 20:09:00,38.1,33.1,29.87,SE,135,0.0,2.0,82,0.00,,,0.00,WUHU216HW,2013-12-20 01:09:00,
2013-12-19 20:14:00,38.1,33.1,29.87,SE,135,0.0,0.0,82,0.00,,,0.00,WUHU216HW,2013-12-20 01:14:00,
2013-12-19 20:19:00,38.3,33.2,29.87,SE,135,0.0,0.0,82,0.00,,,0.00,WUHU216HW,2013-12-20 01:19:00,
2013-12-19 20:24:00,38.3,33.2,29.87,SE,135,0.0,0.0,82,0.00,,,0.00,WUHU216HW,2013-12-20 01:24:00,
2013-12-19 20:29:00,38.3,33.2,29.86,SE,135,0.0,0.0,82,0.00,,,0.00,WUHU216HW,2013-12-20 01:29:00,
2013-12-19 20:34:00,38.4,33.4,29.86,SE,135,0.0,0.0,82,0.00,,,0.00,WUHU216HW,2013-12-20 01:34:00,
2013-12-19 20:39:00,38.4,33.4,29.86,SE,135,0.0,0.0,82,0.00,,,0.00,WUHU216HW,2013-12-20 01:39:00,
2013-12-19 20:44:00,38.3,33.2,29.86,SE,135,0.0,0.0,82,0.00,,,0.00,WUHU216HW,2013-12-20 01:44:00,
2013-12-19 20:49:00,38.3,33.2,29.85,SE,135,0.0,0.0,82,0.00,,,0.00,WUHU216HW,2013-12-20 01:49:00,
2013-12-19 20:54:00,38.1,33.1,29.85,SE,135,1.7,1.7,82,0.00,,,0.00,WUHU216HW,2013-12-20 01:54:00,
2013-12-19 20:59:00,38.1,33.1,29.85,SE,135,0.0,1.7,82,0.00,,,0.00,WUHU216HW,2013-12-20 01:59:00,
2013-12-19 21:04:00,37.9,32.9,29.85,SE,135,1.1,1.1,82,0.00,,,0.00,WUHU216HW,2013-12-20 02:04:00,
2013-12-19 21:09:00,37.9,32.9,29.85,SE,135,0.0,1.1,82,0.00,,,0.00,WUHU216HW,2013-12-20 02:09:00,
2013-12-19 21:14:00,37.9,32.9,29.84,SE,135,0.0,1.1,82,0.00,,,0.00,WUHU216HW,2013-12-20 02:14:00,
2013-12-19 21:19:00,37.9,32.9,29.84,SE,135,0.0,0.0,82,0.00,,,0.00,WUHU216HW,2013-12-20 02:19:00,
2013-12-19 21:24:00,37.9,32.9,29.84,SE,135,0.0,0.0,82,0.00,,,0.00,WUHU216HW,2013-12-20 02:24:00,
2013-12-19 21:29:00,37.9,32.9,29.83,ESE,113,0.0,0.0,82,0.00,,,0.00,WUHU216HW,2013-12-20 02:29:00,
2013-12-19 21:34:00,37.9,32.9,29.83,ESE,113,0.0,0.0,82,0.00,,,0.00,WUHU216HW,2013-12-20 02:34:00,
2013-12-19 21:39:00,37.9,32.9,29.83,ESE,113,0.0,0.0,82,0.00,,,0.00,WUHU216HW,2013-12-20 02:39:00,
2013-12-19 21:44:00,37.9,32.9,29.83,ESE,113,0.0,0.0,82,0.00,,,0.00,WUHU216HW,2013-12-20 02:44:00,
2013-12-19 21:49:00,37.9,32.9,29.83,SE,135,0.0,0.6,82,0.00,,,0.00,WUHU216HW,2013-12-20 02:49:00,
2013-12-19 21:54:00,37.9,32.9,29.83,SE,135,0.0,0.6,82,0.00,,,0.00,WUHU216HW,2013-12-20 02:54:00,
2013-12-19 21:59:00,37.9,32.9,29.83,SE,135,0.0,0.0,82,0.00,,,0.00,WUHU216HW,2013-12-20 02:59:00,
2013-12-19 22:04:00,38.1,33.1,29.83,SE,135,0.0,0.0,82,0.00,,,0.00,WUHU216HW,2013-12-20 03:04:00,
2013-12-19 22:09:00,38.1,33.1,29.83,SE,135,0.0,0.0,82,0.00,,,0.00,WUHU216HW,2013-12-20 03:09:00,
2013-12-19 22:14:00,38.3,33.2,29.83,SE,135,0.0,0.0,82,0.00,,,0.00,WUHU216HW,2013-12-20 03:14:00,
2013-12-19 22:19:00,38.3,33.2,29.83,SE,135,0.0,0.0,82,0.00,,,0.00,WUHU216HW,2013-12-20 03:19:00,
2013-12-19 22:24:00,38.3,33.2,29.84,SE,135,0.0,0.0,82,0.00,,,0.00,WUHU216HW,2013-12-20 03:24:00,
2013-12-19 22:29:00,38.1,33.1,29.84,SE,135,0.0,0.0,82,0.00,,,0.00,WUHU216HW,2013-12-20 03:29:00,
2013-12-19 22:34:00,38.1,33.1,29.83,SE,135,0.0,0.0,82,0.00,,,0.00,WUHU216HW,2013-12-20 03:34:00,
2013-12-19 22:39:00,37.9,32.9,29.83,SE,135,0.0,0.0,82,0.00,,,0.00,WUHU216HW,2013-12-20 03:39:00,
2013-12-19 22:44:00,37.9,32.9,29.83,SE,135,0.0,0.0,82,0.00,,,0.00,WUHU216HW,2013-12-20 03:44:00,
2013-12-19 22:49:00,37.5,32.8,29.83,SE,135,0.0,0.0,83,0.00,,,0.00,WUHU216HW,2013-12-20 03:49:00,
2013-12-19 22:54:00,37.5,32.8,29.82,SE,135,0.0,0.0,83,0.00,,,0.00,WUHU216HW,2013-12-20 03:54:00,
2013-12-19 22:59:00,37.2,32.5,29.82,SE,135,0.0,0.0,83,0.00,,,0.00,WUHU216HW,2013-12-20 03:59:00,
2013-12-19 23:04:00,37.3,32.9,29.82,SE,135,0.0,0.0,84,0.00,,,0.00,WUHU216HW,2013-12-20 04:04:00,
2013-12-19 23:09:00,37.2,32.7,29.82,SE,135,0.0,0.0,84,0.00,,,0.00,WUHU216HW,2013-12-20 04:09:00,
2013-12-19 23:14:00,37.0,32.6,29.81,ESE,113,0.0,0.0,84,0.00,,,0.00,WUHU216HW,2013-12-20 04:14:00,
2013-12-19 23:19:00,37.0,32.6,29.81,SE,135,0.0,0.0,84,0.00,,,0.00,WUHU216HW,2013-12-20 04:19:00,
2013-12-19 23:24:00,37.0,32.9,29.81,SE,135,0.0,0.0,85,0.00,,,0.00,WUHU216HW,2013-12-20 04:24:00,
2013-12-19 23:29:00,37.0,32.9,29.81,SE,135,0.0,0.0,85,0.00,,,0.00,WUHU216HW,2013-12-20 04:29:00,
2013-12-19 23:34:00,37.2,33.0,29.81,SE,135,0.0,0.0,85,0.00,,,0.00,WUHU216HW,2013-12-20 04:34:00,
2013-12-19 23:39:00,37.2,33.0,29.81,SE,135,0.0,0.0,85,0.00,,,0.00,WUHU216HW,2013-12-20 04:39:00,
2013-12-19 23:44:00,37.2,33.0,29.80,SE,135,0.0,0.0,85,0.00,,,0.00,WUHU216HW,2013-12-20 04:44:00,
2013-12-19 23:49:00,37.2,33.0,29.80,SE,135,0.0,0.0,85,0.02,,,0.00,WUHU216HW,2013-12-20 04:49:00,
2013-12-19 23:54:00,37.2,33.0,29.80,SE,135,0.0,0.0,85,0.02,,,0.03,WUHU216HW,2013-12-20 04:54:00,
2013-12-19 23:59:00,37.0,32.9,29.80,SE,135,0.0,0.0,85,0.02,,,0.03,WUHU216HW,2013-12-20 04:59:00,